Onweer van: 25-07-2021 11:00 tot: 20:00 waarschuwing voor: Onweer niveau: Geel info button


waarschuwing voor Onweer Meer informatie blitzortung!


Regen radar Meer informatie rain snow radar


Bezoek onze andere website:

Template documentation
and downloads

And another site



15 daagse weersverwachting Dübendorf (CH)

  • Overzicht
  • Per uur
  • 15 dagen
  • Extra
  • Vergelijk
  • Kaarten
  • Dagkaart
  • Meer »
  • Info
  • Statistieken
  • Directe link
    Temp 6h Neerslag Wind  
 05:57     21:08    Daglengte: 15:11 Vandaag
08:00
18°
13.1 mm
1
14:00
20°
28.4 mm
2
20:00
21°
13.5 mm
1
 05:58     21:06    Daglengte: 15:08 Morgen
02:00
16°
 
1
08:00
17°
4.6 mm
1
14:00
22°
24.4 mm
2
20:00
21°
9.4 mm
1
 06:00     21:05    Daglengte: 15:05 Dinsdag 27 Jul
02:00
16°
24.3 mm
1
08:00
17°
 
1
14:00
24°
 
2
20:00
20°
8.5 mm
3
 06:01     21:04    Daglengte: 15:03 Woensdag 28 Jul
02:00
17°
60.9 mm
1
Locatie info
Region: Uster
Latitude: 47.3998°N
Longitude: 8.6222°E
436 masl
Postcode: 8600
Temp/Neerslag /Baro Onweer/Dauwpunt
    Temp Baro 1h Neerslag Dauwpunt Wind UV Bewolking  
 05:57     21:08    Daglengte: 15:11 Vandaag
06:00
18°
1010.5 hPa 4.2 mm
82%
16.5°
1
Windvlaag: 1.7 m/s
86%
07:00
18°
1010.7 hPa 4.4 mm
82%
16.4°
1
Windvlaag: 0.7 m/s
84%
08:00
18°
1010.6 hPa 4.5 mm
82%
16.3°
1
Windvlaag: -0.2 m/s
85%
09:00
18°
1010.6 hPa 5.0 mm
82%
16.5°
2
Windvlaag: 0.6 m/s
85% warningclass
10:00
18°
1010.7 hPa 5.3 mm
82%
16.3°
1
Windvlaag: 0.2 m/s
80% warningclass
11:00
19°
1010.9 hPa 4.6 mm
82%
16.3°
1
Windvlaag: -0.8 m/s
86% warningclass
12:00
20°
1011.0 hPa 4.4 mm
82%
16.6°
2
Windvlaag: -0.4 m/s
85%
13:00
20°
1011.0 hPa 4.8 mm
80%
16.4°
2
Windvlaag: 0.4 m/s
70%
14:00
20°
1010.8 hPa 4.3 mm
74%
16.2°
2
Windvlaag: 0.8 m/s
59%
15:00
21°
1010.7 hPa 4.2 mm
76%
15.5°
2
Windvlaag: 1.2 m/s
69% warningclass
16:00
21°
1010.8 hPa 4.7 mm
78%
14.7°
2
Windvlaag: 1.6 m/s
63%
17:00
21°
1010.8 hPa 4.6 mm
81%
15.7°
1
Windvlaag: 2.7 m/s
56%
18:00
21°
1010.7 hPa
80%
14.9°
1
Windvlaag: 3.6 m/s
58%
19:00
21°
1010.7 hPa
76%
13.5°
2
Windvlaag: 3.6 m/s
30%
20:00
21°
1011.1 hPa
71%
13.9°
1
Windvlaag: 2.9 m/s
35%
21:00
20°
1011.4 hPa
18%
15.1°
1
Windvlaag: 1.8 m/s
40%
22:00
19°
1012.0 hPa
14%
15.9°
1
Windvlaag: 0.4 m/s
67%
23:00
19°
1012.3 hPa
15%
16.6°
1
Windvlaag: 0.8 m/s
55%
 05:58     21:06    Daglengte: 15:08 Morgen
00:00
18°
1012.6 hPa
15%
16.7°
0
Windvlaag: 0.6 m/s
68%
01:00
17°
1012.5 hPa
22%
16.4°
1
Windvlaag: -0 m/s
69%
02:00
16°
1012.4 hPa
62%
15.9°
1
Windvlaag: 0 m/s
81%
03:00
16°
1012.4 hPa 4.6 mm
69%
15.5°
1
Windvlaag: 0.5 m/s
72%
04:00
16°
1012.5 hPa
18%
15.4°
1
Windvlaag: 0.9 m/s
83%
05:00
16°
1012.6 hPa
19%
15.2°
1
Windvlaag: 0.6 m/s
70%
06:00
16°
1012.9 hPa
16%
15.3°
1
Windvlaag: 0.9 m/s
64%
07:00
16°
1013.2 hPa
15%
15.7°
1
Windvlaag: 1 m/s
70%
08:00
17°
1013.4 hPa
25%
15.9°
1
Windvlaag: 1.2 m/s
34%
09:00
19°
1013.5 hPa
35%
16.2°
1
Windvlaag: 1.4 m/s
61%
10:00
19°
1013.7 hPa 5.2 mm
82%
15.5°
1
Windvlaag: 1.9 m/s
52% warningclass
11:00
20°
1014.0 hPa 5.2 mm
82%
14.2°
2
Windvlaag: 0.2 m/s
49% warningclass
12:00
21°
1014.0 hPa 4.7 mm
82%
13.7°
2
Windvlaag: 0 m/s
45%
13:00
22°
1013.8 hPa 4.6 mm
75%
13.4°
2
Windvlaag: 1.6 m/s
57%
14:00
22°
1013.5 hPa 4.7 mm
82%
12.8°
2
Windvlaag: 1.8 m/s
56%
15:00
23°
1013.3 hPa 4.7 mm
82%
12.8°
2
Windvlaag: 0.5 m/s
52%
16:00
23°
1013.2 hPa 4.8 mm
82%
13.1°
2
Windvlaag: 0.3 m/s
50% warningclass
17:00
23°
1013.2 hPa
82%
15.3°
2
Windvlaag: -0.5 m/s
50%
18:00
22°
1013.3 hPa
78%
16.7°
2
Windvlaag: -0.4 m/s
49%
19:00
22°
1013.3 hPa
77%
17.0°
1
Windvlaag: 1.5 m/s
52%
20:00
21°
1013.7 hPa
27%
16.9°
1
Windvlaag: 2.5 m/s
49%
21:00
20°
1014.1 hPa
21%
16.7°
1
Windvlaag: 3.2 m/s
49%
22:00
19°
1014.8 hPa
15%
16.6°
1
Windvlaag: 3.3 m/s
45%
23:00
18°
1015.4 hPa 8.1 mm
21%
15.2°
1
Windvlaag: 1.6 m/s
63%
 06:00     21:05    Daglengte: 15:05 Dinsdag 27 Jul
00:00
18°
1015.7 hPa 8.2 mm
21%
15.2°
1
Windvlaag: 1.8 m/s
66%
01:00
17°
1015.6 hPa 8.0 mm
21%
14.4°
1
Windvlaag: 1.7 m/s
55%
02:00
16°
1015.6 hPa
21%
14.0°
1
Windvlaag: 1.5 m/s
61%
03:00
16°
1015.6 hPa
21%
13.6°
1
Windvlaag: 1.7 m/s
63%
04:00
16°
1015.6 hPa
21%
13.3°
1
Windvlaag: 1.6 m/s
48%
05:00
15°
1015.7 hPa
21%
13.0°
1
Windvlaag: 1.7 m/s
35%
06:00
15°
1015.7 hPa
21%
12.7°
1
Windvlaag: 1.5 m/s
36%
07:00
16°
1015.8 hPa
21%
12.5°
1
Windvlaag: 1.4 m/s
34%
08:00
17°
1015.8 hPa
21%
13.2°
1
Windvlaag: 1.1 m/s
40%
09:00
18°
1015.9 hPa
21%
13.7°
0
Windvlaag: 0.9 m/s
10%
10:00
20°
1015.5 hPa
21%
14.4°
1
Windvlaag: 1.3 m/s
10%
11:00
21°
1015.1 hPa
21%
14.7°
1
Windvlaag: 1.6 m/s
12%
12:00
22°
1014.5 hPa
21%
14.2°
1
Windvlaag: 3.9 m/s
12%
13:00
23°
1014.2 hPa
21%
13.0°
2
Windvlaag: 3.7 m/s
59%
14:00
24°
1013.8 hPa
21%
12.5°
2
Windvlaag: 6.3 m/s
76%
15:00
24°
1013.6 hPa
21%
12.5°
2
Windvlaag: 5.5 m/s
59%
16:00
24°
1013.6 hPa
97%
12.7°
2
Windvlaag: 7.1 m/s
88%
17:00
24°
1013.6 hPa
90%
16.3°
1
Windvlaag: 4 m/s
92%
18:00
23°
1013.6 hPa
96%
16.5°
2
Windvlaag: 2.9 m/s
89%
19:00
22°
1013.7 hPa
100%
15.3°
2
Windvlaag: 3.2 m/s
87%
20:00
20°
1014.6 hPa 8.5 mm
100%
14.2°
3
Windvlaag: 3.3 m/s
98%
21:00
19°
1015.4 hPa 9.2 mm
100%
14.4°
2
Windvlaag: 2.3 m/s
99%
22:00
18°
1016.1 hPa 9.0 mm
100%
14.8°
1
Windvlaag: 1.7 m/s
100% warningclass
23:00
18°
1016.1 hPa 9.8 mm
100%
14.9°
1
Windvlaag: 1.4 m/s
100% warningclass
 06:01     21:04    Daglengte: 15:03 Woensdag 28 Jul
00:00
18°
1016.2 hPa 11.1 mm
100%
15.7°
1
Windvlaag: 4.5 m/s
99% warningclass
01:00
18°
1015.8 hPa 10.9 mm
100%
15.5°
1
Windvlaag: 0.6 m/s
98%
02:00
17°
1015.7 hPa 11.0 mm
100%
15.1°
1
Windvlaag: 1.6 m/s
86%
Temp/Neerslag /Baro Onweer/Dauwpunt
    Temp Baro Neerslag Dauwpunt Wind Bewolking  
 05:57     21:08    Daglengte: 15:11 Vandaag
08:00
18°
1010.6 hPa 13.1 mm 16.3°
1
85%
11:00
19°
1010.9 hPa 14.9 mm 16.3°
1
86% warningclass
14:00
20°
1010.8 hPa 13.5 mm 16.2°
2
59%
17:00
21°
1010.8 hPa 13.5 mm 15.7°
1
56%
20:00
21°
1011.1 hPa   13.9°
1
35%
23:00
19°
1012.3 hPa   16.6°
1
55%
 05:58     21:06    Daglengte: 15:08 Morgen
02:00
16°
1012.4 hPa   15.9°
1
81%
05:00
16°
1012.6 hPa 4.6 mm 15.2°
1
70%
08:00
17°
1013.4 hPa   15.9°
1
34%
11:00
20°
1014.0 hPa 10.4 mm 14.2°
2
49% warningclass
14:00
22°
1013.5 hPa 14.0 mm 12.8°
2
56%
17:00
23°
1013.2 hPa 9.4 mm 15.3°
2
50%
20:00
21°
1013.7 hPa   16.9°
1
49%
23:00
18°
1015.4 hPa 8.1 mm 15.2°
1
63%
 06:00     21:05    Daglengte: 15:05 Dinsdag 27 Jul
02:00
16°
1015.6 hPa 16.2 mm 14.0°
1
61%
05:00
15°
1015.7 hPa   13.0°
1
35%
08:00
17°
1015.8 hPa   13.2°
1
40%
11:00
21°
1015.1 hPa   14.7°
1
12%
14:00
24°
1013.8 hPa   12.5°
2
76%
17:00
24°
1013.6 hPa   16.3°
1
92%
20:00
20°
1014.6 hPa 8.5 mm 14.2°
3
98%
23:00
18°
1016.1 hPa 28.0 mm 14.9°
1
100% warningclass
 06:01     21:04    Daglengte: 15:03 Woensdag 28 Jul
02:00
17°
1015.7 hPa 32.9 mm 15.1°
1
86%
05:00
16°
1015.9 hPa 40.8 mm 15.6°
0
1%
08:00
15°
1016.8 hPa 43.8 mm 15.0°
1
1%
11:00
18°
1017.3 hPa 44.1 mm 13.0°
1
1%
14:00
22°
1016.7 hPa 44.3 mm 14.7°
1
1%
17:00
23°
1015.9 hPa 44.4 mm 14.4°
1
1%
20:00
20°
1015.9 hPa 44.6 mm 16.5°
1
0%
23:00
16°
1016.8 hPa 44.6 mm 14.3°
1
0%
 06:02     21:03    Daglengte: 15:01 Donderdag 29 Jul
02:00
15°
1016.5 hPa 44.6 mm 13.7°
1
0%
05:00
14°
1015.9 hPa 44.6 mm 13.1°
0
0%
08:00
16°
1015.6 hPa 44.6 mm 14.6°
0
0%
11:00
23°
1014.4 hPa 44.6 mm 16.9°
1
0%
14:00
26°
1013.1 hPa 44.6 mm 15.3°
2
0%
17:00
28°
1011.8 hPa 44.6 mm 16.7°
3
0%
20:00
23°
1012.2 hPa 44.8 mm 19.6°
2
0%
23:00
18°
1013.8 hPa 47.0 mm 17.6°
2
1%
 06:03     21:01    Daglengte: 14:58 Vrijdag 30 Jul
02:00
17°
1014.4 hPa 54.7 mm 16.8°
1
1%
05:00
16°
1014.2 hPa 56.0 mm 16.2°
1
1%
08:00
18°
1014.7 hPa 58.2 mm 17.5°
1
1%
11:00
21°
1014.1 hPa 58.5 mm 17.5°
1
1%
14:00
25°
1012.0 hPa 58.5 mm 17.3°
1
1%
17:00
25°
1010.9 hPa 58.6 mm 18.6°
1
1%
20:00
22°
1011.1 hPa 60.2 mm 19.9°
2
1%
23:00
18°
1012.4 hPa 64.1 mm 17.5°
1
1%
 06:04     21:00    Daglengte: 14:56 Zaterdag 31 Jul
02:00
17°
1012.6 hPa 66.1 mm 16.4°
1
1%
05:00
16°
1012.3 hPa 66.4 mm 16.0°
1
1%
08:00
18°
1012.1 hPa 66.4 mm 17.5°
1
1%
11:00
23°
1012.3 hPa 66.4 mm 17.1°
4
0%
14:00
22°
1013.0 hPa 66.6 mm 14.5°
4
0%
17:00
18°
1013.7 hPa 67.4 mm 16.3°
2
1%
20:00
17°
1014.6 hPa 68.6 mm 15.6°
1
1%
23:00
16°
1016.3 hPa 69.8 mm 14.9°
2
1%
 06:06     20:59    Daglengte: 14:53 Zondag 01 Aug
02:00
15°
1016.8 hPa 69.9 mm 14.0°
2
1%
05:00
14°
1017.3 hPa   12.4°
2
1%
08:00
15°
1017.7 hPa 140.1 mm 13.5°
1
1%
14:00
21°
1016.9 hPa 140.3 mm 12.3°
3
0%
20:00
18°
1017.9 hPa 140.4 mm 12.0°
2
1%
 06:07     20:57    Daglengte: 14:50 Maandag 02 Aug
02:00
14°
1020.7 hPa 141.2 mm 12.6°
1
0%
08:00
15°
1021.3 hPa 141.5 mm 12.6°
1
1%
14:00
23°
1019.3 hPa 141.8 mm 8.9°
2
0%
20:00
18°
1019.0 hPa 141.8 mm 13.4°
1
1%
 06:08     20:56    Daglengte: 14:48 Dinsdag 03 Aug
02:00
12°
1020.3 hPa 141.8 mm 11.6°
1
1%
14:00
23°
1015.7 hPa 212.7 mm 12.6°
2
1%
20:00
17°
1015.0 hPa 142.6 mm 15.3°
2
1%
 06:10     20:54    Daglengte: 14:44 Woensdag 04 Aug
02:00
12°
1015.4 hPa 1.5 mm 9.9°
1
54%
08:00
13°
1015.2 hPa 1.0 mm 10.6°
1
55%
14:00
20°
1014.2 hPa 0.8 mm 10.2°
2
53%
20:00
17°
1014.8 hPa 0.8 mm 11.2°
1
52%
 06:11     20:53    Daglengte: 14:42 Donderdag 05 Aug
02:00
12°
1016.6 hPa 0.4 mm 9.4°
1
48%
08:00
14°
1016.3 hPa 0.4 mm 10.6°
1
54%
14:00
21°
1015.1 hPa 1.0 mm 10.9°
2
56%
20:00
18°
1015.8 hPa 1.4 mm 11.6°
1
56%
 06:12     20:51    Daglengte: 14:39 Vrijdag 06 Aug
02:00
13°
1017.1 hPa 0.6 mm 10.6°
1
60%
08:00
14°
1016.9 hPa 0.4 mm 11.2°
1
56%
14:00
21°
1015.7 hPa 1.5 mm 11.7°
2
57%
20:00
18°
1016.0 hPa 2.6 mm 12.1°
1
52%
 06:13     20:50    Daglengte: 14:37 Zaterdag 07 Aug
02:00
13°
1017.4 hPa 1.8 mm 10.8°
0
59%
08:00
14°
1017.3 hPa 1.9 mm 11.1°
1
60%
14:00
20°
1016.2 hPa 2.3 mm 11.4°
2
60%
20:00
17°
1016.7 hPa 2.1 mm 11.6°
1
59%
 06:15     20:48    Daglengte: 14:33 Zondag 08 Aug
02:00
13°
1018.2 hPa 0.8 mm 10.3°
1
60%
08:00
14°
1018.1 hPa 0.6 mm 11.1°
1
56%
14:00
22°
1016.9 hPa 0.9 mm 10.8°
2
46%
20:00
18°
1017.4 hPa 1.0 mm 12.4°
1
46%
 06:16     20:47    Daglengte: 14:31 Maandag 09 Aug
02:00
14°
1018.7 hPa 1.3 mm 11.1°
1
53%
08:00
15°
1018.6 hPa 0.5 mm 11.8°
1
49%
  CAPE Lifted Index Hail Supercell Tornado SRH 3km CL BTM PRES CL TOP PRES Swiss DWD icon SMHI TS
 05:57     21:08    Daglengte: 15:11 Vandaag
06:00 66 J/kg -0.7 K 0 % 0 % 0 % 0 m²/s² 0 0 -0.4 80
07:00 0 J/kg -0.4 K 0 % 0 % 0 % 0 m²/s² 0 0 -0.19 80
08:00 36 J/kg -0.2 K 0 % 0 % 0 % 0 m²/s² 0 0 -0.2 3
09:00 14 J/kg -0.2 K 0 % 0 % 0 % 0 m²/s² 0 0 0.07 95
10:00 177 J/kg -1.3 K 0 % 0 % 0 % 0 m²/s² 0 0 -1.21 95
11:00 316 J/kg -1.3 K 0 % 0 % 0 % 0 m²/s² 0 0 -1.3 95
12:00 493 J/kg -1.9 K 0 % 0 % 0 % 0 m²/s² 0 0 -1.42 80
13:00 594 J/kg -2.4 K 0 % 0 % 0 % 0 m²/s² 0 0 -1.44 80
14:00 556 J/kg -2.0 K 0 % 0 % 0 % 0 m²/s² 0 0 -0.26 80
15:00 613 J/kg -2.5 K 0 % 0 % 0 % 0 m²/s² 0 0 -2.02 3
16:00 579 J/kg -2.4 K 0 % 0 % 0 % 0 m²/s² 0 0 -0.84 80
17:00 762 J/kg -2.5 K 0 % 0 % 0 % 0 m²/s² 0 0 -1.18 3
18:00 376 J/kg -1.7 K 0 % 0 % 0 % 0 m²/s² 0 0 0.1 80
19:00 215 J/kg -1.8 K 0 % 0 % 0 % 0 m²/s² 0 0 0.45 3
20:00 152 J/kg -1.3 K 0 % 0 % 0 % 0 m²/s² 0 0 1.25 3
21:00 263 J/kg -1.4 K 0 % 0 % 0 % 0 m²/s² 0 0 0.64 3
22:00 292 J/kg -1.3 K 0 % 0 % 0 % 0 m²/s² 0 0 1.16 3
23:00 317 J/kg -1.8 K 0 % 0 % 0 % 0 m²/s² 0 0 0.51 3
 05:58     21:06    Daglengte: 15:08 Morgen
00:00 190 J/kg -2.2 K 0 % 0 % 0 % 0 m²/s² 0 0 -0.16 3
01:00 149 J/kg -2.8 K 0 % 0 % 0 % 0 m²/s² 0 0 -0.7 3
02:00 186 J/kg -3.8 K 0 % 0 % 0 % 0 m²/s² 0 0 -2.03 3
03:00 239 J/kg -4.0 K 0 % 0 % 0 % 0 m²/s² 0 0 -2.47 3
04:00 272 J/kg -4.1 K 0 % 0 % 0 % 0 m²/s² 0 0 -2.45 3
05:00 157 J/kg -4.0 K 0 % 0 % 0 % 0 m²/s² 0 0 -1.96 45
06:00 28 J/kg -3.9 K 0 % 0 % 0 % 0 m²/s² 0 0 -2.07 45
07:00 111 J/kg -3.7 K 0 % 0 % 0 % 0 m²/s² 0 0 -1.99 45
08:00 304 J/kg -3.5 K 0 % 0 % 0 % 0 m²/s² 0 0 -1.79 45
09:00 634 J/kg -3.6 K 0 % 0 % 0 % 0 m²/s² 0 0 -1.89 3
10:00 907 J/kg -3.5 K 0 % 0 % 0 % 0 m²/s² 0 0 -1.52 95
11:00 1026 J/kg -3.8 K 0 % 0 % 0 % 0 m²/s² 0 0 -1.97 95
12:00 1096 J/kg -4.1 K 0 % 0 % 0 % 0 m²/s² 0 0 -1.85 3
13:00 1087 J/kg -4.1 K 0 % 0 % 0 % 0 m²/s² 0 0 -1.91 3
14:00 915 J/kg -3.3 K 0 % 0 % 0 % 0 m²/s² 0 0 -1.05 3
15:00 773 J/kg -2.8 K 0 % 0 % 0 % 0 m²/s² 0 0 -0.94 80
16:00 783 J/kg -3.7 K 0 % 0 % 0 % 0 m²/s² 0 0 -2.2 80
17:00 773 J/kg -3.5 K 0 % 0 % 0 % 0 m²/s² 0 0 -1.64 3
18:00 873 J/kg -3.7 K 0 % 0 % 0 % 0 m²/s² 0 0 -1.3 80
19:00 858 J/kg -3.7 K 0 % 0 % 0 % 0 m²/s² 0 0 -1.3 80
20:00 748 J/kg -3.3 K 0 % 0 % 0 % 0 m²/s² 0 0 -0.69 3
21:00 591 J/kg -2.4 K 0 % 0 % 0 % 0 m²/s² 0 0 -0.63 3
22:00 485 J/kg -2.0 K 0 % 0 % 0 % 0 m²/s² 0 0 -0.02 3
23:00 306 J/kg -1.9 K 0 % 0 % 0 % 0 m²/s² 0 0 0.47 1
 06:00     21:05    Daglengte: 15:05 Dinsdag 27 Jul
00:00 143 J/kg -1.6 K 0 % 0 % 0 % 0 m²/s² 0 0 1.76 0
01:00 115 J/kg -1.7 K 0 % 0 % 0 % 0 m²/s² 0 0 1.84 0
02:00 0 J/kg -1.7 K 0 % 0 % 0 % 0 m²/s² 0 0 2.02 45
03:00 0 J/kg -1.7 K 0 % 0 % 0 % 0 m²/s² 0 0 2.23 1
04:00 4 J/kg -1.7 K 0 % 0 % 0 % 0 m²/s² 0 0 2.2 45
05:00 3 J/kg -1.8 K 0 % 0 % 0 % 0 m²/s² 0 0 2.01 45
06:00 0 J/kg -1.8 K 0 % 0 % 0 % 0 m²/s² 0 0 2.01 45
07:00 0 J/kg -1.7 K 0 % 0 % 0 % 0 m²/s² 0 0 1.72 45
08:00 0 J/kg -1.8 K 0 % 0 % 0 % 0 m²/s² 0 0 1.26 45
09:00 22 J/kg -1.4 K 0 % 0 % 0 % 0 m²/s² 0 0 0.43 1
10:00 227 J/kg -1.7 K 0 % 0 % 0 % 0 m²/s² 0 0 -0.56 1
11:00 385 J/kg -2.7 K 0 % 0 % 0 % 0 m²/s² 0 0 -1.59 2
12:00 425 J/kg -2.8 K 0 % 0 % 0 % 0 m²/s² 0 0 -1.6 2
13:00 339 J/kg -2.6 K 0 % 0 % 0 % 0 m²/s² 0 0 -0.89 3
14:00 280 J/kg -2.7 K 0 % 0 % 0 % 0 m²/s² 0 0 -0.54 3
15:00 233 J/kg -2.0 K 0 % 0 % 0 % 0 m²/s² 0 0 0.04 3
16:00 342 J/kg -2.7 K 0 % 0 % 0 % 0 m²/s² 0 0 -0.87 3
17:00 538 J/kg -2.9 K 0 % 0 % 0 % 0 m²/s² 0 0 -0.98 3
18:00 513 J/kg -2.8 K 0 % 0 % 0 % 0 m²/s² 0 0 -0.97 3
19:00 404 J/kg -2.5 K 0 % 0 % 0 % 0 m²/s² 0 0 -0.73 3
20:00 545 J/kg -2.5 K 0 % 0 % 0 % 0 m²/s² 0 0 -0.91 61
21:00 740 J/kg -2.8 K 0 % 0 % 0 % 0 m²/s² 0 0 -1.39 61
22:00 821 J/kg -3.4 K 0 % 0 % 0 % 0 m²/s² 0 0 -2.05 61
23:00 819 J/kg -3.7 K 0 % 0 % 0 % 0 m²/s² 0 0 -2.44 80
 06:01     21:04    Daglengte: 15:03 Woensdag 28 Jul
00:00 804 J/kg -3.7 K 0 % 0 % 0 % 0 m²/s² 0 0 -2.95 95
01:00 785 J/kg -3.2 K 0 % 0 % 0 % 0 m²/s² 0 0 -1.82 61
02:00 748 J/kg -3.1 K 0 % 0 % 0 % 0 m²/s² 0 0 -1.99 80
Temp Baro Wind Neerslag
  EWN Forecast EWN WRFDA DWD ICON FMI HIRLAM MET Norway GFS
 05:57     21:08    Daglengte: 15:11 Vandaag
08:00 18.1° 1010.6 hPa 1.4 m/s 13.1 mm 17.7° 1009.1 hPa 2.4 m/s 59.1 mm 17.8° 1011.0 hPa 1.1 m/s 1.7 mm 18.3° 1010.8 hPa 2.3 m/s 0.0 mm 16.3° 1011.5 hPa 0.4 m/s
11:00 18.8° 1010.9 hPa 1.4 m/s 14.9 mm 20.1° 1009.5 hPa 0.4 m/s 60.2 mm 18.5° 1011.5 hPa 0.7 m/s 5.3 mm 20.1° 1011.0 hPa 2.5 m/s 0.0 mm 18.8° 1011.2 hPa 1.0 m/s
14:00 20.4° 1010.8 hPa 2.2 m/s 13.5 mm 22.5° 1008.1 hPa 1.3 m/s 60.4 mm 20.5° 1010.7 hPa 1.4 m/s 1.5 mm 20.6° 1011.0 hPa 2.8 m/s 0.0 mm 21.4° 1010.8 hPa 1.7 m/s
17:00 21.3° 1010.8 hPa 1.5 m/s 13.5 mm 22.7° 1009.2 hPa 2.8 m/s 63.6 mm 21.3° 1011.0 hPa 1.0 m/s 1.1 mm 23.0° 1010.3 hPa 3.4 m/s 0.0 mm 22.5° 1010.7 hPa 1.6 m/s
20:00 20.7° 1011.1 hPa 1.4 m/s 0.0 mm 21.9° 1008.8 hPa 1.8 m/s 65.4 mm 20.5° 1011.0 hPa 1.0 m/s 1.6 mm 22.3° 1011.3 hPa 1.8 m/s 0.0 mm 19.9° 1011.3 hPa 0.7 m/s
23:00 18.5° 1012.3 hPa 0.7 m/s 0.0 mm 18.6° 1010.4 hPa 2.1 m/s 65.4 mm 18.8° 1012.2 hPa 0.4 m/s 0.0 mm 18.9° 1013.0 hPa 1.1 m/s 0.0 mm 17.1° 1012.9 hPa 1.3 m/s
 05:58     21:06    Daglengte: 15:08 Morgen
02:00 16.5° 1012.4 hPa 0.6 m/s 0.0 mm 17.3° 1010.7 hPa 1.8 m/s 65.5 mm 18.0° 1012.5 hPa 0.4 m/s 0.0 mm 16.2° 1013.2 hPa 0.4 m/s 0.0 mm 16.1° 1012.9 hPa 1.0 m/s
05:00 15.9° 1012.6 hPa 0.7 m/s 4.6 mm 15.7° 1010.2 hPa 2.4 m/s 65.6 mm 17.0° 1012.4 hPa 0.4 m/s 0.4 mm 14.5° 1013.1 hPa 0.5 m/s 0.0 mm 15.4° 1013.0 hPa 1.1 m/s
08:00 17.2° 1013.4 hPa 0.6 m/s 0.0 mm 18.3° 1011.6 hPa 1.6 m/s 65.7 mm 17.5° 1013.6 hPa 0.3 m/s 0.0 mm 17.0° 1012.9 hPa 0.8 m/s 0.0 mm 16.9° 1013.9 hPa 0.5 m/s
11:00 20.1° 1014.0 hPa 2.1 m/s 10.4 mm 21.8° 1012.4 hPa 1.8 m/s 65.7 mm 19.2° 1014.5 hPa 2.2 m/s 3.5 mm 23.0° 1012.2 hPa 2.8 m/s 0.0 mm 22.4° 1013.5 hPa 0.6 m/s
14:00 22.3° 1013.5 hPa 1.7 m/s 14.0 mm 24.0° 1011.7 hPa 3.2 m/s 66.0 mm 21.0° 1014.2 hPa 2.3 m/s 1.2 mm 26.6° 1010.9 hPa 1.5 m/s 0.0 mm 24.0° 1012.5 hPa 1.2 m/s
17:00 22.8° 1013.2 hPa 1.6 m/s 9.4 mm 23.7° 1012.2 hPa 0.2 m/s 66.6 mm 20.8° 1014.2 hPa 1.8 m/s 1.3 mm 25.8° 1010.7 hPa 2.1 m/s 0.0 mm 21.7° 1013.5 hPa 1.2 m/s
20:00 21.0° 1013.7 hPa 1.4 m/s 0.0 mm 22.4° 1012.0 hPa 2.6 m/s 68.5 mm 19.8° 1014.7 hPa 1.5 m/s 1.6 mm 22.5° 1012.1 hPa 1.4 m/s 0.0 mm 18.8° 1014.9 hPa 1.7 m/s
23:00 18.1° 1015.4 hPa 1.0 m/s 8.1 mm 18.4° 1014.0 hPa 2.7 m/s 68.8 mm 17.8° 1016.1 hPa 0.8 m/s 0.0 mm 16.1° 1016.1 hPa 1.3 m/s
 06:00     21:05    Daglengte: 15:05 Dinsdag 27 Jul
02:00 16.5° 1015.6 hPa 1.1 m/s 16.2 mm 16.3° 1014.1 hPa 2.3 m/s 68.8 mm 15.9° 1015.9 hPa 1.0 m/s 0.0 mm 14.7° 1016.5 hPa 1.4 m/s
05:00 15.5° 1015.7 hPa 1.2 m/s 0.0 mm 14.9° 1014.2 hPa 1.9 m/s 68.8 mm 15.2° 1016.1 hPa 0.3 m/s 0.0 mm 13.9° 1016.4 hPa 0.8 m/s
08:00 17.2° 1015.8 hPa 0.5 m/s 0.0 mm 17.4° 1014.1 hPa 0.2 m/s 68.8 mm 16.3° 1016.2 hPa 0.4 m/s 0.0 mm 16.2° 1016.1 hPa 0.3 m/s
11:00 21.1° 1015.1 hPa 1.0 m/s 0.0 mm 21.6° 1013.9 hPa 0.3 m/s 68.8 mm 21.0° 1015.4 hPa 1.2 m/s 0.0 mm 21.3° 1015.1 hPa 0.6 m/s
14:00 23.9° 1013.8 hPa 1.9 m/s 0.0 mm 24.6° 1013.2 hPa 2.2 m/s 68.8 mm 23.7° 1014.0 hPa 1.8 m/s 0.0 mm 23.0° 1014.2 hPa 0.8 m/s
17:00 23.7° 1013.6 hPa 1.4 m/s 0.0 mm 23.0° 1013.5 hPa 2.6 m/s 69.4 mm 23.9° 1013.6 hPa 1.1 m/s 0.1 mm 21.9° 1014.4 hPa 0.6 m/s
20:00 20.2° 1014.6 hPa 3.2 m/s 8.5 mm 22.0° 1013.2 hPa 2.4 m/s 72.7 mm 19.8° 1014.9 hPa 3.4 m/s 0.7 mm 18.7° 1014.4 hPa 1.4 m/s
23:00 18.0° 1016.1 hPa 0.5 m/s 28.0 mm 20.2° 1014.8 hPa 1.3 m/s 74.1 mm 17.4° 1016.4 hPa 0.4 m/s 5.0 mm 16.3° 1016.6 hPa 1.7 m/s
 06:01     21:04    Daglengte: 15:03 Woensdag 28 Jul
02:00 17.3° 1015.7 hPa 1.0 m/s 32.9 mm 18.3° 1014.9 hPa 1.3 m/s 83.9 mm 17.1° 1016.0 hPa 0.9 m/s 7.4 mm 16.0° 1016.1 hPa 1.2 m/s
05:00 15.8° 1015.9 hPa 0.4 m/s 40.8 mm 15.8° 1015.9 hPa 0.4 m/s 40.8 mm
08:00 15.5° 1016.8 hPa 0.7 m/s 43.8 mm 15.5° 1016.8 hPa 0.7 m/s 43.8 mm
11:00 18.0° 1017.3 hPa 1.1 m/s 44.1 mm 18.0° 1017.3 hPa 1.1 m/s 44.1 mm
14:00 21.9° 1016.7 hPa 1.4 m/s 44.3 mm 21.9° 1016.7 hPa 1.4 m/s 44.3 mm
17:00 23.0° 1015.9 hPa 1.3 m/s 44.4 mm 23.0° 1015.9 hPa 1.3 m/s 44.4 mm
20:00 20.2° 1015.9 hPa 0.7 m/s 44.6 mm 20.2° 1015.9 hPa 0.7 m/s 44.6 mm
23:00 15.8° 1016.8 hPa 0.6 m/s 44.6 mm 15.8° 1016.8 hPa 0.6 m/s 44.6 mm
 06:02     21:03    Daglengte: 15:01 Donderdag 29 Jul
02:00 14.5° 1016.5 hPa 0.8 m/s 44.6 mm 14.5° 1016.5 hPa 0.8 m/s 44.6 mm
05:00 13.6° 1015.9 hPa 0.3 m/s 44.6 mm 13.6° 1015.9 hPa 0.3 m/s 44.6 mm
08:00 16.1° 1015.6 hPa 0.2 m/s 44.6 mm 16.1° 1015.6 hPa 0.2 m/s 44.6 mm
11:00 22.6° 1014.4 hPa 0.7 m/s 44.6 mm 22.6° 1014.4 hPa 0.7 m/s 44.6 mm
14:00 26.2° 1013.1 hPa 2.1 m/s 44.6 mm 26.2° 1013.1 hPa 2.1 m/s 44.6 mm
17:00 28.0° 1011.8 hPa 2.8 m/s 44.6 mm 28.0° 1011.8 hPa 2.8 m/s 44.6 mm
20:00 23.0° 1012.2 hPa 1.6 m/s 44.8 mm 23.0° 1012.2 hPa 1.6 m/s 44.8 mm
23:00 18.1° 1013.8 hPa 1.8 m/s 47.0 mm 18.1° 1013.8 hPa 1.8 m/s 47.0 mm
 06:03     21:01    Daglengte: 14:58 Vrijdag 30 Jul
02:00 17.1° 1014.4 hPa 0.9 m/s 54.7 mm 17.1° 1014.4 hPa 0.9 m/s 54.7 mm
05:00 16.4° 1014.2 hPa 0.9 m/s 56.0 mm 16.4° 1014.2 hPa 0.9 m/s 56.0 mm
08:00 17.9° 1014.7 hPa 0.7 m/s 58.2 mm 17.9° 1014.7 hPa 0.7 m/s 58.2 mm
11:00 21.3° 1014.1 hPa 0.6 m/s 58.5 mm 21.3° 1014.1 hPa 0.6 m/s 58.5 mm
14:00 25.2° 1012.0 hPa 1.3 m/s 58.5 mm 25.2° 1012.0 hPa 1.3 m/s 58.5 mm
17:00 25.5° 1010.9 hPa 1.1 m/s 58.6 mm 25.5° 1010.9 hPa 1.1 m/s 58.6 mm
20:00 21.6° 1011.1 hPa 1.5 m/s 60.2 mm 21.6° 1011.1 hPa 1.5 m/s 60.2 mm
23:00 17.9° 1012.4 hPa 0.9 m/s 64.1 mm 17.9° 1012.4 hPa 0.9 m/s 64.1 mm
 06:04     21:00    Daglengte: 14:56 Zaterdag 31 Jul
02:00 16.7° 1012.6 hPa 0.7 m/s 66.1 mm 16.7° 1012.6 hPa 0.7 m/s 66.1 mm
05:00 16.1° 1012.3 hPa 1.4 m/s 66.4 mm 16.1° 1012.3 hPa 1.4 m/s 66.4 mm
08:00 18.2° 1012.1 hPa 0.8 m/s 66.4 mm 18.2° 1012.1 hPa 0.8 m/s 66.4 mm
11:00 22.7° 1012.3 hPa 4.0 m/s 66.4 mm 22.7° 1012.3 hPa 4.0 m/s 66.4 mm
14:00 22.3° 1013.0 hPa 3.9 m/s 66.6 mm 22.3° 1013.0 hPa 3.9 m/s 66.6 mm
17:00 18.3° 1013.7 hPa 2.1 m/s 67.4 mm 18.3° 1013.7 hPa 2.1 m/s 67.4 mm
20:00 16.8° 1014.6 hPa 1.4 m/s 68.6 mm 16.8° 1014.6 hPa 1.4 m/s 68.6 mm
23:00 16.0° 1016.3 hPa 1.6 m/s 69.8 mm 16.0° 1016.3 hPa 1.6 m/s 69.8 mm
 06:06     20:59    Daglengte: 14:53 Zondag 01 Aug
02:00 15.3° 1016.8 hPa 1.6 m/s 69.9 mm 15.3° 1016.8 hPa 1.6 m/s 69.9 mm
05:00 14.0° 1017.3 hPa 1.9 m/s 70.0 mm 14.0° 1017.3 hPa 1.9 m/s 70.0 mm
08:00 15.5° 1017.7 hPa 0.7 m/s 70.0 mm 15.5° 1017.7 hPa 0.7 m/s 70.0 mm
14:00 20.8° 1016.9 hPa 2.6 m/s 70.1 mm 20.8° 1016.9 hPa 2.6 m/s 70.1 mm
20:00 17.7° 1017.9 hPa 2.5 m/s 70.3 mm 17.7° 1017.9 hPa 2.5 m/s 70.3 mm
 06:07     20:57    Daglengte: 14:50 Maandag 02 Aug
02:00 13.6° 1020.7 hPa 1.2 m/s 70.6 mm 13.6° 1020.7 hPa 1.2 m/s 70.6 mm
08:00 14.6° 1021.3 hPa 0.7 m/s 70.7 mm 14.6° 1021.3 hPa 0.7 m/s 70.7 mm
14:00 22.5° 1019.3 hPa 2.4 m/s 70.9 mm 22.5° 1019.3 hPa 2.4 m/s 70.9 mm
20:00 18.0° 1019.0 hPa 1.0 m/s 70.9 mm 18.0° 1019.0 hPa 1.0 m/s 70.9 mm
 06:08     20:56    Daglengte: 14:48 Dinsdag 03 Aug
02:00 12.4° 1020.3 hPa 0.7 m/s 70.9 mm 12.4° 1020.3 hPa 0.7 m/s 70.9 mm
14:00 22.9° 1015.7 hPa 2.1 m/s 70.9 mm 22.9° 1015.7 hPa 2.1 m/s 70.9 mm
20:00 17.3° 1015.0 hPa 1.6 m/s 71.7 mm 17.3° 1015.0 hPa 1.6 m/s 71.7 mm
 06:10     20:54    Daglengte: 14:44 Woensdag 04 Aug
02:00 12.2° 1015.4 hPa 0.9 m/s 1.5 mm
08:00 13.1° 1015.2 hPa 0.8 m/s 1.0 mm
14:00 19.8° 1014.2 hPa 1.8 m/s 0.8 mm
20:00 17.1° 1014.8 hPa 0.9 m/s 0.8 mm
 06:11     20:53    Daglengte: 14:42 Donderdag 05 Aug
02:00 12.4° 1016.6 hPa 0.8 m/s 0.4 mm
08:00 13.6° 1016.3 hPa 0.6 m/s 0.4 mm
14:00 21.0° 1015.1 hPa 1.8 m/s 1.0 mm
20:00 17.5° 1015.8 hPa 0.7 m/s 1.4 mm
 06:12     20:51    Daglengte: 14:39 Vrijdag 06 Aug
02:00 13.2° 1017.1 hPa 0.6 m/s 0.6 mm
08:00 14.0° 1016.9 hPa 0.8 m/s 0.4 mm
14:00 20.7° 1015.7 hPa 1.9 m/s 1.5 mm
20:00 17.6° 1016.0 hPa 0.9 m/s 2.6 mm
 06:13     20:50    Daglengte: 14:37 Zaterdag 07 Aug
02:00 13.2° 1017.4 hPa 0.5 m/s 1.8 mm
08:00 13.7° 1017.3 hPa 0.8 m/s 1.9 mm
14:00 20.1° 1016.2 hPa 1.6 m/s 2.3 mm
20:00 17.3° 1016.7 hPa 0.7 m/s 2.1 mm
 06:15     20:48    Daglengte: 14:33 Zondag 08 Aug
02:00 13.1° 1018.2 hPa 0.9 m/s 0.8 mm
08:00 13.9° 1018.1 hPa 1.0 m/s 0.6 mm
14:00 22.0° 1016.9 hPa 1.6 m/s 0.9 mm
20:00 18.3° 1017.4 hPa 0.7 m/s 1.0 mm
 06:16     20:47    Daglengte: 14:31 Maandag 09 Aug
02:00 13.8° 1018.7 hPa 0.9 m/s 1.3 mm
08:00 14.6° 1018.6 hPa 0.7 m/s 0.5 mm
FMI Hirlam - 7.5 km EWN WRFDA - 12 km DWD ICON - 7 km GFS - 25 km Basiskaart






























































Updatetijd (Europe/Amsterdam) Resolutie Lengte Stap
FMI Hirlam 02:00, 08:00, 14:00, 20:00 7.5 km 49h 1h
EWN WRFDA 22:15, 04:15, 10:15, 16:15 12 km 73h 1h
DWD ICON 23:45, 05:45, 11:45, 17:45 7 km 75h 1h
GFS 02:15, 08:15, 14:15, 20:15 25 km 237h 3h
30+ mm
25-30 mm
20-25 mm
15-20 mm
10-15 mm
6-10 mm
4-6 mm
2-4 mm
1-2 mm
0.5-1 mm
0.2-0.5 mm
0.1-0.2 mm
30+ mm
25-30 mm
20-25 mm
15-20 mm
10-15 mm
6-10 mm
4-6 mm
2-4 mm
1-2 mm
0.5-1 mm
0.2-0.5 mm
0.1-0.2 mm
Sneeuwval
Natte sneeuw
Hagel
Vorst
30+ mm
25-30 mm
20-25 mm
15-20 mm
10-15 mm
6-10 mm
4-6 mm
2-4 mm
1-2 mm
0.5-1 mm
0.2-0.5 mm
0.1-0.2 mm
Sneeuwval
Natte sneeuw
Hagel
Vorst
Onweer
50 mm
40 mm
30 mm
26 mm
22 mm
18 mm
14 mm
10 mm
9 mm
8 mm
7 mm
6 mm
5 mm
4.5 mm
4 mm
3.5 mm
3 mm
2.5 mm
2 mm
1.5 mm
1 mm
0.8 mm
0.6 mm
0.4 mm
0.2 mm
0.05 mm
35°
30°
25°
20°
15°
10°
-5°
-10°
-15°
-20°
-25°
-30°
-35°
33> m/s
29 m/s
25 m/s
21 m/s
17 m/s
14 m/s
11 m/s
8 m/s
5 m/s